User: anonymous   Login
Location: Kikino
(54.4440°N, 112.0940°W)
Time: 11:03:18
(UTC+00:00)
Language:

RS-44 - Orbit

View from above orbital plane
View from above orbital plane
View from above satellite
View from above satellite

Ground track
Ground track

The orbit data is extracted from the following two-line orbital elements,

1 44909U 19096E   23334.12420119  .00000045  00000-0  13210-3 0  9995
2 44909  82.5228 237.6725 0217736 158.7399 202.2924 12.79724075183439
Epoch (UTC): 30 November 2023 02:58:50
Eccentricity: 0.0217736
inclination: 82.5228°
perigee height: 1174 km
apogee height: 1510 km
right ascension of ascending node: 237.6725°
argument of perigee: 158.7399°
revolutions per day: 12.79724075
mean anomaly at epoch: 202.2924°
orbit number at epoch: 18343

The dashed part of the orbit path shows where the satellite is in the earth's shadow,  

DLR